Station 44098 - Jeffrey's Ledge, NH (160) Image indicating link to RSS feed of recent meteorological observations for station 44098


Conditions at 44098 as of
(1:26 pm EDT)
1726 GMT on 05/20/2024:
     

Click on the graph icon in the table below to see a time series plot of the last five days of that observation.

5-day plot - Wave Height Wave Height (WVHT): 4.3 ft
5-day plot - Dominant Wave Period Dominant Wave Period (DPD): 8 sec
5-day plot - Average Wave Period Average Period (APD): 6.4 sec
5-day plot - Mean Wave Direction Mean Wave Direction (MWD):ESE ( 103 deg true )
5-day plot - Water Temperature Water Temperature (WTMP): 54.3 °F
Previous observations
TIME
(EDT)
5-day plot - Wind Direction
WDIR
 
5-day plot - Wind Speed
WSPD
kts
5-day plot - Wind Gust
GST
kts
5-day plot - Wave Height
WVHT
ft
5-day plot - Dominant Wave Period
DPD
sec
5-day plot - Average Wave Period
APD
sec
5-day plot - Mean Wave Direction
MWD
 
5-day plot - Atmospheric Pressure
PRES
in
5-day plot - Pressure Tendency
PTDY
in
5-day plot - Air Temperature
ATMP
°F
5-day plot - Water Temperature
WTMP
°F
5-day plot - Dew Point
DEWP
°F
5-day plot - Salinity
SAL
psu
5-day plot - Visibility
VIS
nmi
5-day plot - Tide (above MLLW)
TIDE
ft
2024-05-20 12:56 pm--- 4.3 86.4ESE--- 53.8----
2024-05-20 12:26 pm--- 4.3 86.2ESE--- 53.4----
2024-05-20 11:56 am--- 4.3 86.1ESE--- 53.2----
2024-05-20 11:26 am--- 4.3 86.2ESE--- 53.2----
2024-05-20 10:56 am--- 4.6 86.4 E--- 52.9----
2024-05-20 10:26 am--- 4.6 86.1 E--- 52.9----
2024-05-20 09:56 am--- 4.6 86.3 E--- 52.9----
2024-05-20 09:26 am--- 4.6 86.2 E--- 52.9----
2024-05-20 08:56 am--- 4.6 86.1 E--- 52.5----
2024-05-20 08:26 am--- 4.9 76.1 E--- 52.7----
2024-05-20 07:56 am--- 5.2 86.3 E--- 52.9----
2024-05-20 07:26 am--- 5.2 86.3 E--- 52.9----
2024-05-20 06:56 am--- 5.2 86.4 E--- 52.9----
2024-05-20 06:26 am--- 5.6 86.4 E--- 52.9----
2024-05-20 05:56 am--- 5.2 86.3 E--- 52.9----
2024-05-20 05:26 am--- 5.2 86.3ESE--- 52.9----
2024-05-20 04:56 am--- 4.9 86.3ESE--- 52.9----
2024-05-20 04:26 am--- 5.2 86.4ESE--- 52.9----
2024-05-20 03:56 am--- 4.6 86.1ESE--- 53.1----
2024-05-20 03:26 am--- 5.2 86.4ESE--- 53.1----
2024-05-20 02:56 am--- 4.9 86.3ESE--- 53.1----
2024-05-20 02:26 am--- 5.6 86.5ESE--- 53.1----
2024-05-20 01:56 am--- 4.9 86.3ESE--- 52.9----
2024-05-20 01:26 am--- 5.2 86.3ESE--- 52.9----
2024-05-20 12:56 am--- 5.6 86.6ESE--- 52.7----
2024-05-20 12:26 am--- 5.6 86.5 E--- 52.7----
2024-05-19 11:56 pm--- 5.2 86.4 E--- 53.1----
2024-05-19 11:26 pm--- 5.2 86.4 E--- 53.2----
2024-05-19 10:56 pm--- 5.6 86.3ESE--- 53.2----
2024-05-19 10:26 pm--- 4.9 86.2 E--- 53.4----
2024-05-19 09:56 pm--- 4.9 86.2 E--- 53.4----
2024-05-19 09:26 pm--- 4.9 86.1 E--- 53.4----
2024-05-19 08:56 pm--- 4.6 85.8 E--- 53.2----
2024-05-19 08:26 pm--- 4.9 85.7 E--- 53.1----
2024-05-19 07:56 pm--- 4.9 85.5 E--- 52.5----
2024-05-19 07:26 pm--- 4.9 75.4 E--- 52.5----
2024-05-19 06:56 pm--- 5.6 75.6 E--- 52.5----
2024-05-19 06:26 pm--- 5.6 75.4 E--- 52.5----
2024-05-19 05:56 pm--- 5.9 85.5 E--- 52.3----
2024-05-19 05:26 pm--- 5.9 85.5 E--- 52.3----
2024-05-19 04:56 pm--- 5.9 85.4 E--- 52.5----
2024-05-19 04:26 pm--- 6.2 85.5 E--- 52.5----
2024-05-19 03:56 pm--- 6.2 85.5 E--- 52.5----
2024-05-19 03:26 pm--- 6.9 75.7 E--- 52.5----
2024-05-19 02:56 pm--- 6.2 75.4ESE--- 52.5----
2024-05-19 02:26 pm--- 6.2 75.4ESE--- 52.3----
2024-05-19 01:56 pm--- 6.6 85.7 E--- 52.3----
2024-05-19 01:26 pm--- 5.9 85.5ESE--- 52.7----
2024-05-19 12:56 pm--- 6.9 85.7 E--- 52.9----

Detailed Wave Summary
for 44098 as of (1:26 pm EDT)
1726 GMT on 05/20/2024:

These wave data are displayed in rounded times.

     

Click on the graph icon in the table below to see a time series plot of the last five days of that observation.

5-day plot - Significant Wave Height Significant Wave Height (WVHT): 4.3 ft
5-day plot - Swell Height Swell Height (SwH): 0.7 ft
5-day plot - Swell Period Swell Period (SwP): 10.5 sec
5-day plot - Swell Direction Swell Direction (SwD):ESE
5-day plot - Wind Wave Height Wind Wave Height (WWH): 4.3 ft
5-day plot - Wind Wave Period Wind Wave Period (WWP): 8.3 sec
5-day plot - Wind Wave Direction Wind Wave Direction (WWD):ESE
5-day plot - Wave Steepness Wave Steepness (STEEPNESS): AVERAGE
5-day plot - Average Wave Period Average Wave Period (APD): 6.4 sec
Previous observations
TIME
(EDT)
5-day plot - Wave Height
WVHT
ft
5-day plot - Swell Height
SwH
ft
5-day plot - Swell Period
SwP
sec
5-day plot - Swell Direction
SwD
 
5-day plot - Wind Wave Height
WWH
ft
5-day plot - Wind Wave Period
WWP
sec
5-day plot - Wind Wave Direction
WWD
 
5-day plot - Wave Steepness
STEEPNESS
 
5-day plot - Average Wave Period
APD
sec
2024-05-20 12:56 pm 4.3 0.7 10.5ESE 4.3 8.3 ESE AVERAGE 6.4
2024-05-20 12:26 pm 4.3 0.7 10.5ESE 4.3 8.3 ESE AVERAGE 6.2
2024-05-20 11:56 am 4.3 0.7 10.5ESE 4.3 8.3 ESE AVERAGE 6.1
2024-05-20 11:26 am 4.3 0.7 10.5ESE 4.3 8.3 ESE AVERAGE 6.2
2024-05-20 10:56 am 4.6 0.7 11.1ESE 4.6 8.3 E AVERAGE 6.4
2024-05-20 10:26 am 4.6 0.7 10.5ESE 4.3 8.3 E AVERAGE 6.1
2024-05-20 09:56 am 4.6 0.7 10.5ESE 4.6 8.3 E AVERAGE 6.3
2024-05-20 09:26 am 4.6 0.7 10.5ESE 4.6 8.3 E AVERAGE 6.2
2024-05-20 08:56 am 4.6 0.7 10.5ESE 4.6 8.3 E AVERAGE 6.1
2024-05-20 08:26 am 4.9 0.7 10.5 E 4.9 7.1 E STEEP 6.1
2024-05-20 07:56 am 5.2 0.7 10.5 E 5.2 8.3 E AVERAGE 6.3
2024-05-20 07:26 am 5.2 0.7 10.5ESE 5.2 8.3 E AVERAGE 6.3
2024-05-20 06:56 am 5.2 0.7 10.5ESE 5.2 8.3 E AVERAGE 6.4
2024-05-20 06:26 am 5.6 0.7 10.5ESE 5.6 7.7 E STEEP 6.4
2024-05-20 05:56 am 5.2 0.7 11.8ESE 5.2 7.7 E AVERAGE 6.3
2024-05-20 05:26 am 5.2 0.7 10.5ESE 4.9 8.3 ESE AVERAGE 6.3
2024-05-20 04:56 am 4.9 0.7 10.5ESE 4.9 7.7 ESE AVERAGE 6.3
2024-05-20 04:26 am 5.2 0.7 10.5ESE 5.2 8.3 ESE AVERAGE 6.4
2024-05-20 03:56 am 4.6 0.7 10.5ESE 4.6 7.7 ESE AVERAGE 6.1
2024-05-20 03:26 am 5.2 0.7 10.5ESE 5.2 8.3 ESE AVERAGE 6.4
2024-05-20 02:56 am 4.9 0.7 10.5ESE 4.9 8.3 ESE AVERAGE 6.3
2024-05-20 02:26 am 5.6 0.7 11.1ESE 5.6 8.3 ESE AVERAGE 6.5
2024-05-20 01:56 am 4.9 0.7 11.1ESE 4.9 8.3 ESE AVERAGE 6.3
2024-05-20 01:26 am 5.2 0.7 11.1ESE 4.9 8.3 ESE AVERAGE 6.3
2024-05-20 12:56 am 5.6 1.0 11.1ESE 5.2 8.3 ESE AVERAGE 6.6
2024-05-20 12:26 am 5.6 1.0 10.5ESE 5.2 8.3 E AVERAGE 6.5
2024-05-19 11:56 pm 5.2 0.7 10.5ESE 5.2 8.3 E AVERAGE 6.4
2024-05-19 11:26 pm 5.2 0.7 10.5ESE 5.2 8.3 E AVERAGE 6.4
2024-05-19 10:56 pm 5.6 0.7 10.5ESE 5.6 7.7 ESE AVERAGE 6.3
2024-05-19 10:26 pm 4.9 0.7 11.8ESE 4.9 8.3 E AVERAGE 6.2
2024-05-19 09:56 pm 4.9 0.7 10.5ESE 4.9 8.3 E AVERAGE 6.2
2024-05-19 09:26 pm 4.9 0.7 10.5ESE 4.6 8.3 E AVERAGE 6.1
2024-05-19 08:56 pm 4.6 0.7 10.5ESE 4.6 8.3 E AVERAGE 5.8
2024-05-19 08:26 pm 4.6 0.7 10.5 E 4.6 7.7 E AVERAGE 5.7
2024-05-19 07:56 pm 4.6 0.7 10.5ESE 4.6 8.3 E AVERAGE 5.5
2024-05-19 07:26 pm 4.9 0.7 11.1ESE 4.9 7.1 E STEEP 5.4
2024-05-19 06:56 pm 5.2 0.7 10.5ESE 5.2 7.1 E STEEP 5.6
2024-05-19 06:26 pm 5.6 0.7 10.5ESE 5.6 7.1 E STEEP 5.4
2024-05-19 05:56 pm 5.9 0.7 11.1 SE 5.9 7.7 E STEEP 5.5
2024-05-19 05:26 pm 5.9 0.7 11.1 SE 5.9 7.7 E STEEP 5.5
2024-05-19 04:56 pm 5.9 0.7 11.1ESE 5.9 7.7 E STEEP 5.4
2024-05-19 04:26 pm 6.2 0.7 10.5ESE 6.2 7.7 E STEEP 5.5
2024-05-19 03:56 pm 6.2 0.7 11.1SSE 6.2 7.7 E STEEP 5.5
2024-05-19 03:26 pm 6.6 0.7 10.5ESE 6.6 7.1 E STEEP 5.7
2024-05-19 02:56 pm 6.2 0.7 11.8 SE 6.2 7.1 ESE STEEP 5.4
2024-05-19 02:26 pm 6.2 0.7 11.8 SE 6.2 7.1 ESE STEEP 5.4
2024-05-19 01:56 pm 6.6 0.7 10.5 E 6.6 7.7 E STEEP 5.7
2024-05-19 01:26 pm 5.9 0.7 10.5SSE 5.9 7.7 ESE STEEP 5.5
2024-05-19 12:56 pm 6.9 0.7 10.5 E 6.9 7.7 E STEEP 5.7

Plot of wave energy versus frequency (and period)